Regional Weather Roundup
Issued by NWS Grand Forks, ND

Home | Current Version | Previous Version | Text Only | Print | Product List | Glossary On
Versions: 1 2 3 4 5 6 7 8 9 10 11 12 13 14 15 16 17 18 19 20 21 22 23 24 25 26 27 28 29 30 31 32 33 34 35 36 37 38 39 40 41 42 43 44 45 46 47 48 49 50
972
ASUS43 KFGF 221410
RWRFGF
PRAIRIE TO PINES  WEATHER ROUNDUP
NATIONAL WEATHER SERVICE EASTERN NORTH DAKOTA/GRAND FORKS ND
900 AM CDT FRI MAY 22 2015

 **SATELLITE DATA USED TO AUGMENT SKY COVER AT AUTOMATED STATIONS**
 *****  WEATHER ACROSS EASTERN NORTH DAKOTA  *****

CITY           SKY/WX    TMP DP  RH WIND       PRES   REMARKS
GRAND FORKS    SUNNY     61  40  45 S7        30.18S
GRAND FRKS AFB SUNNY     62  37  40 SW7       30.18S
GRAND FRKS NWS   N/A     57 N/A N/A SW6         N/A
DEVILS LAKE    SUNNY     57  39  51 SW7       30.17S
FARGO          SUNNY     60  44  55 E3        30.19S
WAHPETON ARPT  SUNNY     57  37  47 CALM      30.20R
$$

 ***** WEATHER ACROSS CENTRAL AND WESTERN NORTH DAKOTA  *****

CITY           SKY/WX    TMP DP  RH WIND       PRES   REMARKS
BISMARCK       SUNNY     54  45  71 CALM      30.16F
MINOT          SUNNY     61  40  45 SE6       30.13F
JAMESTOWN      SUNNY     58  42  55 S7        30.17F
MINOT AFB      SUNNY     64  42  45 S6        30.13S
GARRISON         N/A     56  42  59 VRB3      30.15S
WILLISTON      SUNNY     56  39  53 CALM      30.14R
DICKINSON      SUNNY     56  39  53 SE7       30.12S
HETTINGER      PTSUNNY   53  38  56 E7        30.14S
$$

 *****  OTHER AIRPORT OBSERVATIONS IN OUR AREA  *****

CITY           SKY/WX    TMP DP  RH WIND       PRES   REMARKS
WALHALLA       FAIR      64  36  34 SW9G20    30.14S
GRAFTON AIRPOR FAIR      59  41  51 S9        30.18S
VALLEY CITY AR FAIR      57  41  54 S7        30.19S
CANDO          FAIR      59  39  47 SW3       30.17S
CAVALIER APRT  FAIR      59  45  58 SW8       30.15S
GWINNER        NOT AVBL
SHEYENNE NWR     N/A     62  43  49 CALM      29.95S
ROLLA          FAIR      64  32  29 SW14      30.16S
 ***** THE ABOVE OBSERVATIONS ARE NON NWS ARE NOT QUALITY
       CONTROLLED AND MAY MIS-REPORT RAIN FOR SNOW...
$$

  *****  WEATHER ACROSS NORTHERN MINNESOTA  *****

CITY           SKY/WX    TMP DP  RH WIND       PRES   REMARKS
FLAG ISLAND    PTSUNNY   52  41  66 SE5       30.16S
WARROAD        SUNNY     57  46  67 CALM      30.18S
ROSEAU         SUNNY     59  39  47 SW7       30.18S
HALLOCK        SUNNY     59  43  55 S10       30.16S
THF RVR FALLS  SUNNY     57  37  47 S6        30.20S
BAUDETTE       SUNNY     55  40  56 S5        30.18S
WASKISH        SUNNY     57  45  62 CALM      30.20R
CROOKSTON      SUNNY     57  36  44 S7        30.20S
$$
  *****  WEATHER ACROSS CENTRAL AND WEST MINNESOTA  *****

CITY           SKY/WX    TMP DP  RH WIND       PRES   REMARKS
FOSSTON        SUNNY     55  39  54 SW7       30.21R
BEMIDJI        SUNNY     56  39  53 CALM      30.21R
PARK RAPIDS    SUNNY     58  39  49 S3        30.20S
ELBOW LAKE     FAIR      58  42  56 E3        30.19S
WADENA         SUNNY     55  41  58 CALM      30.20S
DETROIT LAKES  SUNNY     59  45  58 CALM      30.21S
MOORHEAD       SUNNY     57  41  54 CALM      30.20F
FERGUS FALLS   SUNNY     61  45  55 CALM      30.20F
MORRIS MN      SUNNY     59  41  51 CALM      30.19S
STAPLES        SUNNY     57  37  47 CALM      30.21S
$$
  *****  WEATHER ELSEWHERE ACROSS MINNESOTA  *****

CITY           SKY/WX    TMP DP  RH WIND       PRES   REMARKS
DULUTH         SUNNY     57  30  35 SW5       30.21R
INTRNTL FALLS  SUNNY     56  33  42 S3        30.18F
ELY            SUNNY     54  27  35 W6        30.20S
CLOQUET        SUNNY     57  28  33 S3        30.22R
WHEATON        SUNNY     55  43  62 CALM      30.21S
BRAINERD       SUNNY     58  39  49 VRB3      30.22R
HIBBING        SUNNY     56  33  42 SW3       30.21R
ALEXANDRIA     SUNNY     60  33  36 SE6       30.21R
SAINT CLOUD    SUNNY     59  38  45 S5        30.21S
MINNEAPOLIS    SUNNY     60  39  45 NE5       30.20F
$$

  *****  WEATHER ACROSS SOUTH DAKOTA  *****

CITY           SKY/WX    TMP DP  RH WIND       PRES   REMARKS
SIOUX FALLS    MOSUNNY   61  46  57 E3        30.20S
BROOKINGS      SUNNY     61  34  36 SE6       30.21S
WATERTOWN      SUNNY     60  39  45 SE6       30.20R
HURON          SUNNY     59  42  53 S3        30.18F
SISSETON         N/A     62  40  44 CALM      30.18S
ABERDEEN       SUNNY     59  41  51 SE5       30.18S
MITCHELL       SUNNY     59  42  53 SE6       30.20S
PIERRE         SUNNY     55  42  61 E5        30.15S
MOBRIDGE       MOSUNNY   58  44  60 E7        30.14S
RAPID CITY     CLOUDY    54  46  74 SE12      30.11R
$$

  *****  SOME WEATHER IN NEARBY STATES *****

CITY           SKY/WX    TMP DP  RH WIND       PRES   REMARKS
GLASGOW MT     SUNNY     55  34  45 E17       30.06S
GREAT FALLS MT SUNNY     50  41  71 E5        29.97R
CHEYENNE WY    RAIN      42  41  96 SE16      30.04R FOG
SCOTTSBLUFF NE CLOUDY    48  45  89 SE16      30.08R
OMAHA NE       CLOUDY    59  45  59 CALM      30.23R
DES MOINES IA  CLOUDY    62  45  53 NW5       30.21R
DAVENPORT IA   SUNNY     61  43  51 CALM      30.19R
CHICAGO IL     SUNNY     57  37  47 NE9       30.19R
EAU CLAIRE WI    N/A     57  36  45 NE6       30.21R
LA CROSSE WI   SUNNY     58  44  60 E3        30.19S
$$

  *****  SOME NATIONAL WEATHER *****

CITY           SKY/WX    TMP DP  RH WIND       PRES   REMARKS
LA GUARDIA NY  SUNNY     64  41  42 NW12      29.92R
RALEIGH NC     MOSUNNY   62  45  53 VRB5      30.19R
ATLANTA GA     MOSUNNY   63  48  58 NE8       30.21R
NEW ORLEANS LA CLOUDY    69  62  78 NE12      30.17S
OKLAHOMA CITY  LGT RAIN  54  54 100 E9        30.19F FOG
ALBUQUERQUE NM PTSUNNY   53  44  71 CALM      30.12S
SALT LAKE CITY PTSUNNY   53  45  74 S7        29.91S
LOS ANGELES CA PTSUNNY   57  52  83 W16       30.00R
BOISE ID       MOSUNNY   57  47  69 E5        29.89R
SEATTLE WA     CLOUDY    54  50  86 SW5       29.97R
$$

*** WEATHER ACROSS MANITOBA...SASKATCHEWAN AND ONTARIO ***
                ***ONTARIO***

CITY           SKY/WX    TMP DP  RH WIND       PRES   REMARKS
GERALDTON      MOSUNNY   39  21  48 NW8       30.21S
THUNDER BAY    SUNNY     45  30  57 VRB5      30.24S
SIOUX LOOKOUT  SUNNY     52  30  43 SW5       30.18S
TORONTO        MOSUNNY   54  36  50 NW10      30.05R
BIG TROUT LK   SUNNY     41  28  60 SW6       30.13F
PICKLE LAKE    SUNNY     45  21  39 NW3       30.17S
DRYDEN         SUNNY     54  28  37 SW7       30.17S
KENORA         MOSUNNY   55  32  41 SW12      30.17S
$$
                *** MANITOBA***

CITY           SKY/WX    TMP DP  RH WIND       PRES   REMARKS
BRANDON        MOSUNNY   59  43  55 W9        30.14S
DAUPHIN        SUNNY     66  43  42 W15       30.09S
ISLAND LAKE    MOSUNNY   52  27  37 SE7       30.02F
PILOT MOUND      N/A     63  37  39 SW9         N/A
THE PAS        PTSUNNY   64  36  34 W13       29.97R
THOMPSON       MOSUNNY   54  34  47 SW8       29.92S
WINNIPEG       MOSUNNY   59  41  51 S12       30.12F
LYNN LAKE      SUNNY     66  32  28 N8        29.93R
CHURCHILL      PTSUNNY   54  32  43 SW13      29.83F
GILLAM         PTSUNNY   55  27  33 S13       29.96F
$$
                ***SASKATCHEWAN***

CITY           SKY/WX    TMP DP  RH WIND       PRES   REMARKS
ESTEVAN        SUNNY     59  41  51 VRB2      30.13F
KINDERSLEY     SUNNY     59  32  36 S9        30.06S
LLOYDMINSTER   MOSUNNY   59  34  38 S9        30.03S
PRINCE ALBERT  MOSUNNY   59  41  51 VRB2      30.06S
REGINA         SUNNY     55  41  58 E5        30.13S
YORKTON        SUNNY     63  41  45 W10       30.12R
N. BATTLEFORD  SUNNY     63  34  34 S5        30.08S
LA RONGE       SUNNY     66  36  32 SW8       29.98S
SASKATOON      SUNNY     59  37  44 S3        30.10S
SWIFT CURRENT  SUNNY     61  32  33 S10       30.08S
$$
NOTE: THESE ARE AUTOMATED STATIONS WITH LIMITED QUALITY CONTROL
      "FAIR" INDICATES FEW OR NO CLOUDS BELOW 12,000 FEET WITH NO
      SIGNIFICANT WEATHER AND/OR OBSTRUCTIONS TO VISIBILITY.
      SKY/WX - SKY CONDITION AND SIGNIFICANT WEATHER.
      TMP - AIR TEMPERATURE.    DP   - DEWPOINT TEMPERATURE.
      RH  - RELATIVE HUMIDITY.  PRES - PRESSURE.
      HX  - HEAT INDEX.         WCI  - WIND CHILL INDEX.
$



USA.gov is the U.S. government's official web portal to all federal, state and local government web resources and services.